• In Belarus
  • List of Countries
  • For 7 days
  • Water Temperature
  • Weather Map
  • Weather Widgets
  • user-avatar
    Login

    Hourly Weather Altynemel

    Today, 17 September, Tuesday

    Time Temperature Precipitation Wind Pressure Humidity
    00:00 +12°C° 0 mm 3 mps 659 mmHg 47%
    01:00 +12°C° 0 mm 4 mps 659 mmHg 49%
    02:00 +12°C° 0 mm 5 mps 659 mmHg 51%
    03:00 +12°C° 0 mm 4 mps 659 mmHg 52%
    04:00 +12°C° 0 mm 3 mps 660 mmHg 53%
    05:00 +11°C° 0 mm 3 mps 660 mmHg 54%
    06:00 +12°C° 0 mm 3 mps 661 mmHg 52%
    07:00 +13°C° 0 mm 3 mps 661 mmHg 50%
    08:00 +13°C° 0 mm 3 mps 662 mmHg 48%
    09:00 +14°C° 0.1 mm 3 mps 662 mmHg 46%
    10:00 +16°C° 0.1 mm 2 mps 662 mmHg 43%
    11:00 +17°C° 0.1 mm 2 mps 662 mmHg 40%
    12:00 +17°C° 0 mm 2 mps 662 mmHg 38%
    13:00 +18°C° 0 mm 3 mps 662 mmHg 36%
    14:00 +18°C° 0 mm 3 mps 662 mmHg 34%
    15:00 +18°C° 0 mm 2 mps 662 mmHg 34%
    16:00 +18°C° 0 mm 2 mps 662 mmHg 34%
    17:00 +19°C° 0 mm 1 mps 662 mmHg 34%
    18:00 +17°C° 0 mm 2 mps 662 mmHg 37%
    19:00 +16°C° 0 mm 2 mps 662 mmHg 40%
    20:00 +15°C° 0 mm 2 mps 662 mmHg 43%
    21:00 +14°C° 0 mm 2 mps 661 mmHg 44%
    22:00 +13°C° 0 mm 3 mps 661 mmHg 44%
    23:00 +13°C° 0 mm 3 mps 661 mmHg 45%

    Tomorrow, 18 September, Wednesday

    Time Temperature Precipitation Wind Pressure Humidity
    00:00 +12°C° 0 mm 3 mps 660 mmHg 45%
    01:00 +12°C° 0 mm 4 mps 660 mmHg 46%
    02:00 +12°C° 0 mm 4 mps 660 mmHg 46%
    03:00 +12°C° 0 mm 4 mps 659 mmHg 47%
    04:00 +12°C° 0 mm 5 mps 659 mmHg 48%
    05:00 +10°C° 0 mm 5 mps 659 mmHg 48%
    06:00 +13°C° 0 mm 6 mps 659 mmHg 45%
    07:00 +14°C° 0 mm 6 mps 659 mmHg 41%
    08:00 +16°C° 0 mm 7 mps 659 mmHg 37%
    09:00 +17°C° 0 mm 7 mps 659 mmHg 33%
    10:00 +20°C° 0 mm 7 mps 659 mmHg 29%
    11:00 +21°C° 0 mm 7 mps 659 mmHg 25%
    12:00 +22°C° 0 mm 6 mps 659 mmHg 23%
    13:00 +23°C° 0 mm 6 mps 658 mmHg 21%
    14:00 +25°C° 0 mm 5 mps 658 mmHg 18%
    15:00 +23°C° 0 mm 4 mps 658 mmHg 19%
    16:00 +24°C° 0 mm 3 mps 658 mmHg 20%
    17:00 +22°C° 0 mm 3 mps 658 mmHg 21%
    18:00 +21°C° 0 mm 3 mps 657 mmHg 22%
    19:00 +19°C° 0 mm 3 mps 657 mmHg 23%
    20:00 +18°C° 0 mm 3 mps 657 mmHg 24%
    21:00 +18°C° 0 mm 4 mps 656 mmHg 22%
    22:00 +18°C° 0 mm 4 mps 656 mmHg 19%
    23:00 +18°C° 0 mm 4 mps 656 mmHg 17%

    Day after tomorrow, 19 September, Thursday

    Time Temperature Precipitation Wind Pressure Humidity
    00:00 +17°C° 0 mm 3 mps 656 mmHg 18%
    01:00 +17°C° 0 mm 3 mps 656 mmHg 19%
    02:00 +17°C° 0 mm 2 mps 656 mmHg 19%
    03:00 +16°C° 0 mm 2 mps 656 mmHg 20%
    04:00 +16°C° 0 mm 2 mps 656 mmHg 21%
    05:00 +15°C° 0 mm 1 mps 657 mmHg 22%
    06:00 +17°C° 0 mm 2 mps 657 mmHg 21%
    07:00 +19°C° 0 mm 2 mps 658 mmHg 19%
    08:00 +21°C° 0 mm 2 mps 659 mmHg 18%
    09:00 +23°C° 0 mm 2 mps 659 mmHg 17%
    10:00 +24°C° 0 mm 2 mps 660 mmHg 16%
    11:00 +26°C° 0 mm 2 mps 660 mmHg 16%
    12:00 +26°C° 0 mm 2 mps 660 mmHg 15%
    13:00 +27°C° 0 mm 2 mps 660 mmHg 15%
    14:00 +27°C° 0 mm 2 mps 660 mmHg 15%
    15:00 +27°C° 0 mm 2 mps 660 mmHg 17%
    16:00 +26°C° 0 mm 2 mps 660 mmHg 19%
    17:00 +26°C° 0 mm 2 mps 660 mmHg 20%
    18:00 +24°C° 0 mm 2 mps 659 mmHg 22%
    19:00 +21°C° 0 mm 2 mps 659 mmHg 24%
    20:00 +21°C° 0 mm 1 mps 659 mmHg 27%
    21:00 +19°C° 0 mm 2 mps 658 mmHg 27%
    22:00 +19°C° 0 mm 2 mps 658 mmHg 26%
    23:00 +19°C° 0 mm 2 mps 658 mmHg 26%

    20 September, Friday

    Time Temperature Precipitation Wind Pressure Humidity
    00:00 +19°C° 0 mm 2 mps 658 mmHg 26%
    01:00 +18°C° 0 mm 2 mps 657 mmHg 26%
    02:00 +18°C° 0 mm 2 mps 657 mmHg 27%
    03:00 +18°C° 0 mm 2 mps 657 mmHg 27%
    04:00 +18°C° 0 mm 2 mps 657 mmHg 27%
    05:00 +18°C° 0 mm 3 mps 657 mmHg 27%
    06:00 +19°C° 0 mm 3 mps 658 mmHg 25%
    07:00 +21°C° 0 mm 3 mps 658 mmHg 23%
    08:00 +24°C° 0 mm 3 mps 659 mmHg 22%
    09:00 +25°C° 0 mm 2 mps 659 mmHg 20%
    10:00 +26°C° 0 mm 2 mps 659 mmHg 18%
    11:00 +28°C° 0 mm 2 mps 660 mmHg 16%
    12:00 +28°C° 0 mm 2 mps 659 mmHg 15%
    13:00 +29°C° 0 mm 2 mps 659 mmHg 15%
    14:00 +29°C° 0 mm 2 mps 659 mmHg 14%
    15:00 +29°C° 0 mm 2 mps 659 mmHg 15%
    16:00 +28°C° 0 mm 2 mps 659 mmHg 17%
    17:00 +27°C° 0 mm 2 mps 659 mmHg 18%
    18:00 +26°C° 0 mm 2 mps 659 mmHg 20%
    19:00 +24°C° 0 mm 2 mps 659 mmHg 22%
    20:00 +22°C° 0 mm 1 mps 659 mmHg 24%
    21:00 +21°C° 0 mm 1 mps 658 mmHg 25%
    22:00 +21°C° 0 mm 1 mps 658 mmHg 26%
    23:00 +20°C° 0 mm 1 mps 658 mmHg 27%

    21 September, Saturday

    Time Temperature Precipitation Wind Pressure Humidity
    00:00 +20°C° 0 mm 1 mps 658 mmHg 27%
    01:00 +19°C° 0 mm 1 mps 658 mmHg 28%
    02:00 +19°C° 0 mm 1 mps 657 mmHg 28%
    03:00 +19°C° 0 mm 1 mps 657 mmHg 29%
    04:00 +18°C° 0 mm 1 mps 657 mmHg 30%
    05:00 +18°C° 0 mm 1 mps 657 mmHg 30%
    06:00 +20°C° 0 mm 1 mps 658 mmHg 27%
    07:00 +22°C° 0 mm 1 mps 659 mmHg 25%
    08:00 +24°C° 0 mm 1 mps 660 mmHg 22%
    09:00 +25°C° 0 mm 1 mps 660 mmHg 21%
    10:00 +26°C° 0 mm 1 mps 660 mmHg 19%
    11:00 +27°C° 0 mm 1 mps 660 mmHg 18%
    12:00 +28°C° 0 mm 2 mps 659 mmHg 18%
    13:00 +28°C° 0 mm 2 mps 659 mmHg 17%
    14:00 +29°C° 0 mm 2 mps 659 mmHg 16%
    15:00 +28°C° 0 mm 2 mps 659 mmHg 18%
    16:00 +27°C° 0 mm 2 mps 658 mmHg 19%
    17:00 +27°C° 0 mm 2 mps 658 mmHg 21%
    18:00 +25°C° 0 mm 2 mps 657 mmHg 23%
    19:00 +23°C° 0 mm 2 mps 657 mmHg 24%
    20:00 +21°C° 0 mm 2 mps 657 mmHg 26%
    21:00 +21°C° 0 mm 2 mps 656 mmHg 26%
    22:00 +21°C° 0 mm 3 mps 656 mmHg 25%
    23:00 +21°C° 0 mm 4 mps 656 mmHg 24%

    22 September, Sunday

    Time Temperature Precipitation Wind Pressure Humidity
    00:00 +21°C° 0 mm 4 mps 656 mmHg 24%
    01:00 +21°C° 0 mm 4 mps 655 mmHg 25%
    02:00 +20°C° 0 mm 4 mps 655 mmHg 25%
    03:00 +20°C° 0 mm 4 mps 655 mmHg 25%
    04:00 +20°C° 0 mm 4 mps 655 mmHg 25%
    05:00 +20°C° 0 mm 5 mps 655 mmHg 25%
    06:00 +21°C° 0 mm 5 mps 655 mmHg 23%
    07:00 +23°C° 0 mm 5 mps 656 mmHg 21%
    08:00 +26°C° 0 mm 5 mps 657 mmHg 19%
    09:00 +27°C° 0 mm 5 mps 657 mmHg 17%
    10:00 +28°C° 0 mm 5 mps 657 mmHg 16%
    11:00 +30°C° 0 mm 4 mps 657 mmHg 14%
    12:00 +30°C° 0 mm 4 mps 657 mmHg 13%
    13:00 +31°C° 0 mm 3 mps 657 mmHg 12%
    14:00 +31°C° 0 mm 2 mps 657 mmHg 11%
    15:00 +30°C° 0 mm 2 mps 657 mmHg 13%
    16:00 +29°C° 0 mm 2 mps 656 mmHg 14%
    17:00 +29°C° 0 mm 1 mps 656 mmHg 16%
    18:00 +27°C° 0 mm 1 mps 656 mmHg 17%
    19:00 +25°C° 0 mm 2 mps 656 mmHg 19%
    20:00 +24°C° 0 mm 2 mps 656 mmHg 20%
    21:00 +23°C° 0 mm 2 mps 655 mmHg 20%
    22:00 +23°C° 0 mm 2 mps 655 mmHg 21%
    23:00 +22°C° 0 mm 3 mps 655 mmHg 21%
    Show more